Regional Weather Roundup
Issued by NWS

Home | Current Version | Previous Version | Text Only | Print | Product List | Glossary Off
Versions: 1 2 3 4 5 6 7 8 9 10 11 12 13 14 15 16 17 18 19 20 21 22 23 24 25 26 27 28 29 30 31 32 33 34 35 36 37 38 39 40 41 42 43 44 45 46 47 48 49 50

000
ASUS43 KLOT 290308
RWRIL

ILLINOIS REGIONAL WEATHER ROUNDUP
NATIONAL WEATHER SERVICE CHICAGO/ROMEOVILLE IL
1000 PM CDT THU APR 28 2016

NOTE: "FAIR" INDICATES FEW OR NO CLOUDS BELOW 12,000 FEET WITH NO
SIGNIFICANT WEATHER AND/OR OBSTRUCTIONS TO VISIBILITY.

* THESE STATIONS ARE NOT UNDER NWS QUALITY CONTROL. THEY ALSO MAY NOT
  REPORT WEATHER SUCH AS PRECIPITATION OR FOG.

ILZ001-002-007-009-015-016-024-290400-
NORTHWEST ILLINOIS

CITY           SKY/WX    TMP DP  RH WIND       PRES   REMARKS
MOLINE         CLOUDY    52  48  86 E6        29.99R FOG
STERLING*      CLOUDY    46  45  93 NE7       30.01S
SAVANNA*       CLOUDY    45  42  91 NE8       30.01S
$$

ILZ003-004-008-010-011-017-018-290400-
NORTH CENTRAL ILLINOIS

CITY           SKY/WX    TMP DP  RH WIND       PRES   REMARKS
ROCKFORD       CLOUDY    43  40  89 NE7       30.04R
FREEPORT*      CLOUDY    41  39  93 NE8       30.04R FOG
ROCHELLE*      CLOUDY    43  41  94 NE10      30.02R FOG
DE KALB*       CLOUDY    43  41  94 NE7       30.02R FOG
$$

ILZ005-006-012>014-019>023-290400-
NORTHEAST ILLINOIS

CITY           SKY/WX    TMP DP  RH WIND       PRES   REMARKS
CHICAGO-OHARE  LGT RAIN  42  41  96 N9        30.01R FOG
CHICAGO-MIDWAY DRIZZLE   46  40  79 N8        30.01R
AURORA         CLOUDY    45  42  89 NE9       30.01R FOG
LANSING*       CLOUDY    46  41  85 N5        30.01R
JOLIET*        CLOUDY    47  43  87 NE6       30.00S
WAUKEGAN       CLOUDY    41  40  96 N6        30.02R
DUPAGE AIRPORT CLOUDY    43  39  86 NE8       30.01R FOG
KANKAKEE*      CLOUDY    49  46  87 N8        29.99S
WHEELING       CLOUDY    42  40  92 N7        30.03R
MORRIS*        CLOUDY    47  44  88 CALM      29.99R
ROMEOVILLE*    CLOUDY    45  41  85 NE9       30.00S
NORTHERLY ISL    N/A     44  41  89 N8          N/A
NORTHERLY ISL    N/A     44  41  89 N8          N/A
$$

LMZ740>746-290400-
SOUTHERN LAKE MICHIGAN

STATION/POSITION SKY/WX   TEMP    WIND        PRES    VSBY  WAVE
                          AIR SEA DIR/SP/G                  HT/PER
                          (F)     (DEG/KT/KT) (MB)    (MI)  (FT/S)
HARRISON CRIB              44      10/ 12/ 12   N/A
BURNHAM HARBOR             44     350/  7/ 10   N/A
CALUMET HARBOR                                1015.0R
BURNS HARBOR               45     310/  5/  7 1015.9R
MICHIGAN CITY              48     360/  2/  3   N/A
ST. JOSEPH                 51 47  100/  8/ 10   N/A           1/ 6
$$

ILZ025>027-034>036-040-047-049-050-058-095>099-290400-
WEST-CENTRAL ILLINOIS

CITY           SKY/WX    TMP DP  RH WIND       PRES   REMARKS
QUINCY         CLOUDY    57  47  69 W7        30.02R
GALESBURG*     CLOUDY    53  49  87 CALM      30.00R
MACOMB*        CLOUDY    55  50  83 W7        30.03R
JACKSONVILLE*  CLOUDY    58  50  75 SW3       30.01S
PITTSFIELD*    CLOUDY    59  49  70 W5        30.03R
$$

ILZ028>032-037-038-041>044-048-051>054-059>061-290400-
CENTRAL ILLINOIS

CITY           SKY/WX    TMP DP  RH WIND       PRES   REMARKS
PONTIAC        CLOUDY    52  52  98 CALM      30.00R FOG
BLOOMINGTON    CLOUDY    56  49  77 W8        30.01R
DECATUR        CLOUDY    58  47  66 NW8       30.01R
PEORIA         CLOUDY    56  47  71 W3        30.00R
LACON*         CLOUDY    53  49  85 NW3       29.99R
LINCOLN*       CLOUDY    58  50  73 CALM      30.01R
SPRINGFIELD    CLOUDY    59  51  75 W3        30.01R
TAYLORVILLE    CLEAR     55  48  76 NW8       30.01R
$$

ILZ033-039-045-046-055>057-062-063-290400-
EAST-CENTRAL ILLINOIS

CITY           SKY/WX    TMP DP  RH WIND       PRES   REMARKS
CHAMPAIGN      CLOUDY    54  48  80 NW7       30.00R
RANTOUL*       PTCLDY    54  51  89 W5        30.00R
MATTOON        CLEAR     55  49  80 NW7       29.99R
PARIS*         PTCLDY    56  49  79 NW10      30.00R
$$

ILZ079-100>102-290400-
SOUTHWEST ILLINOIS

CITY           SKY/WX    TMP DP  RH WIND       PRES   REMARKS
ALTON          CLEAR     59  48  67 CALM      30.01R
CAHOKIA*       CLEAR     62  48  60 N10       30.01R
SPARTA*        CLEAR     63  51  66 N6        30.00R
$$

ILZ064>066-069>071-074>076-080>082-084>086-088>090-092>094-290400-
SOUTH-CENTRAL ILLINOIS

CITY           SKY/WX    TMP DP  RH WIND       PRES   REMARKS
CARBONDALE     CLEAR     60  52  74 CALM      29.98R
CAIRO*         CLEAR     63  55  75 CALM      29.98R
EFFINGHAM*     CLEAR     60  53  78 NW9       30.02R
MARION         CLEAR     61  55  82 CALM      29.99R
MT. VERNON     CLEAR     55  50  82 CALM      29.99R
CENTRALIA*     CLEAR     62  54  75 N9        30.00R
SALEM*         CLEAR     61  51  69 N13G18    30.00R
METROPOLIS*    CLEAR     62  57  86 CALM      29.98R
$$

ILZ067-068-072-073-078-083-087-091-290400-
SOUTHEAST ILLINOIS

CITY           SKY/WX    TMP DP  RH WIND       PRES   REMARKS
LAWRENCEVILLE  CLEAR     61  53  75 NW9       29.98R
FLORA*         CLEAR     63  53  71 NW8       29.99R
FAIRFIELD*     CLEAR     60  54  78 CALM      29.97R
HARRISBURG*    CLEAR     62  53  71 N3        29.98R
ROBINSON*      CLEAR     57  52  84 NW5       29.99R
CARMI*         CLEAR     61  56  82 CALM      29.98R
$$

ABBREVIATIONS USED IN REMARKS
   TC - TEMPERATURE IN CELSIUS
  WCI - WIND CHILL INDEX
   HX - HEAT INDEX
  VSB - VISIBILITY
$$





USA.gov is the U.S. government's official web portal to all federal, state and local government web resources and services.